Location: *
(6.0000°S, 32.3997°W)
Time: 13:35:17
(UTC+00:00)

Lacrosse 4 Rocket - Pass Details

Date: 01 April 2020
Orbit: 538 x 620 km, 68.0° (Epoch: 04 June)

Event Time Altitude Azimuth Distance (km) Brightness Sun altitude
Rises 20:38:27 0° 340° (NNW) 2,832 5.3 -6.8°
Reaches altitude 10° 20:40:42 10° 339° (NNW) 1,922 4.4 -7.3°
Maximum altitude 20:45:02 83° 251° (WSW) 594 1.5 -8.4°
Drops below altitude 10° 20:49:16 10° 163° (SSE) 1,884 3.8 -9.4°
Sets 20:51:27 0° 162° (SSE) 2,771 4.7 -10.0°
